Content
SEND FEEDBACK

Daily
Averages
Monthly
Summary
United States of America

GALENA, ILLINOIS


Home > North America > United States > Illinois
Elevation: 721 feet     Latitude: 42 25N     Longitude: 090 26W

WEATHER
 
SELECT A DAY
Number of Records: 211,087;   Date Range: 1/1/95 - 8/30/14
 
SHARE

PRINT THIS DATA

[ ← Previous Day ]
WEATHER ALMANAC - JANUARY 31, 2013
[ Next Day → ]
[ °C ]   °F
Weather ElementAverageHighLow
Temperature4.9 °F12.9 °F (12:53 am)-4 °F (10:53 pm)
Dewpoint-1.5 °F7 °F (12:53 am)-11 °F (10:53 pm)
Humidity75 %85 % (3:02 am)66 % (3:53 pm)
Barometer29.93 in30.30 in (11:53 pm)29.71 in (12:49 am)
Wind Speed18.7 mph23 mph (3:33 am)
Wind Gust31.1 mph (5:51 pm)
Weather ElementAverage
Visibility8.3 mi
Wind DirectionWNW (293.3 °)

Weather ElementTotal
Precipitation---
Heating Degree Days60.6 (Base 65)
Averaged from 63 records on January 31, 2013
WEATHER CONDITIONS BREAKOUT
WIND DIRECTION BREAKOUT
WEATHER BY HOUR - JANUARY 31, 2013
[ °C ]   °F
Local TimeTemperatureDewpointHumidityBarometerVisibilityWind DirectionWind SpeedGust SpeedPrecipitationEventsConditions
12:49 AM12.2 °F6.8 °F79 %29.71 in10.0 miWNW (290°)15.0 mph24.2 mph0.00 inRainLight Freezing Rain
12:53 AM12.9 °F7.0 °F77 %29.76 in10.0 miWNW (290°)18.4 mph24.2 mph0.00 inRainLight Freezing Rain
1:11 AM12.2 °F6.8 °F79 %29.71 in10.0 miWNW (290°)21.9 mph27.6 mph0.00 inOvercast
1:22 AM12.2 °F6.8 °F79 %29.71 in9.0 miWNW (290°)19.6 mph0.00 inRainLight Freezing Rain
1:38 AM12.2 °F6.8 °F79 %29.72 in9.0 miWest (280°)13.8 mph0.00 inSnowLight Snow
1:53 AM12.0 °F7.0 °F80 %29.78 in10.0 miWNW (290°)19.6 mph25.3 mph0.00 inRainLight Freezing Rain
2:15 AM12.2 °F6.8 °F79 %29.73 in7.0 miWest (280°)18.4 mph0.00 inRainLight Freezing Rain
2:24 AM12.2 °F6.8 °F79 %29.73 in7.0 miWNW (290°)20.7 mph26.5 mph0.00 inOvercast
2:34 AM12.2 °F6.8 °F79 %29.74 in10.0 miWNW (290°)19.6 mph25.3 mph0.00 inRainLight Freezing Rain
2:53 AM10.9 °F6.1 °F81 %29.80 in7.0 miWest (280°)17.3 mph0.00 inRainLight Freezing Rain
3:02 AM10.4 °F6.8 °F85 %29.74 in9.0 miWNW (290°)18.4 mphRainLight Freezing Rain
3:33 AM10.4 °F3.2 °F73 %29.74 in8.0 miWNW (290°)23.0 mph28.8 mphOvercast
3:37 AM10.4 °F3.2 °F73 %29.74 in6.0 miWNW (290°)19.6 mph28.8 mphRainLight Freezing Rain
3:41 AM10.4 °F3.2 °F73 %29.74 in6.0 miWNW (290°)18.4 mph28.8 mphRainLight Freezing Rain
3:51 AM10.4 °F3.2 °F73 %29.74 in8.0 miWNW (290°)17.3 mph25.3 mphRainLight Freezing Rain
3:53 AM10.0 °F3.9 °F76 %29.81 in7.0 miWNW (290°)17.3 mph25.3 mphRainLight Freezing Rain
4:00 AM8.6 °F3.2 °F79 %29.74 in4.0 miWNW (290°)21.9 mph26.5 mphRainLight Freezing Rain
4:08 AM8.6 °F3.2 °F79 %29.75 in8.0 miWNW (290°)21.9 mphRainLight Freezing Rain
4:26 AM8.6 °F1.4 °F73 %29.75 in10.0 miWNW (290°)18.4 mph27.6 mphRainLight Freezing Rain
4:46 AM6.8 °F1.4 °F79 %29.76 in8.0 miWNW (290°)15.0 mph25.3 mphRainLight Freezing Rain
4:53 AM7.0 °F1.9 °F80 %29.83 in6.0 miWest (280°)17.3 mph23.0 mphRainLight Freezing Rain
5:45 AM5.0 °F-0.4 °F78 %29.77 in10.0 miWNW (290°)16.1 mph26.5 mphOvercast
5:53 AM5.0 °F0.0 °F80 %29.84 in7.0 miWNW (290°)19.6 mph27.6 mphRainLight Freezing Rain
5:56 AM5.0 °F-0.4 °F78 %29.77 in7.0 miWNW (290°)19.6 mph27.6 mphOvercast
6:35 AM5.0 °F-0.4 °F78 %29.79 in7.0 miWest (280°)21.9 mphOvercast
6:53 AM5.0 °F0.0 °F80 %29.87 in7.0 miWNW (290°)19.6 mph26.5 mphOvercast
7:32 AM3.2 °F-0.4 °F85 %29.82 in4.0 miWNW (290°)19.6 mphOvercast
7:46 AM3.2 °F-0.4 °F85 %29.82 in4.0 miWNW (300°)17.3 mphHaze
7:53 AM3.9 °F-0.9 °F80 %29.89 in4.0 miWNW (300°)17.3 mphHaze
8:19 AM3.2 °F-0.4 °F85 %29.83 in9.0 miWNW (290°)13.8 mphMostly Cloudy
8:53 AM5.0 °F-0.9 °F76 %29.92 in8.0 miWNW (290°)17.3 mphMostly Cloudy
9:14 AM5.0 °F-2.2 °F72 %29.86 in8.0 miWNW (300°)18.4 mphOvercast
9:53 AM5.0 °F-2.0 °F73 %29.94 in8.0 miWNW (300°)18.4 mphOvercast
10:53 AM5.0 °F-2.0 °F73 %29.98 in5.0 miWNW (290°)17.3 mphHaze
11:53 AM3.9 °F-2.9 °F73 %29.99 in8.0 miWNW (300°)19.6 mph27.6 mphMostly Cloudy
12:41 PM3.2 °F-2.2 °F78 %29.93 in9.0 miWest (280°)19.6 mph25.3 mphOvercast
12:53 PM3.9 °F-2.9 °F73 %30.01 in10.0 miWest (280°)18.4 mphOvercast
1:34 PM3.2 °F-2.2 °F78 %29.95 in10.0 miWNW (300°)17.3 mph28.8 mphOvercast
1:50 PM3.2 °F-4.0 °F72 %29.96 in10.0 miWNW (290°)20.7 mph27.6 mphOvercast
1:53 PM3.9 °F-4.0 °F70 %30.03 in10.0 miWest (280°)21.9 mph27.6 mphOvercast
2:14 PM3.2 °F-4.0 °F72 %29.96 in10.0 miWNW (290°)17.3 mph28.8 mphOvercast
2:53 PM3.9 °F-4.0 °F70 %30.04 in10.0 miWNW (300°)20.7 mph27.6 mphOvercast
3:31 PM3.2 °F-4.0 °F72 %29.99 in8.0 miWNW (290°)20.7 mph27.6 mphOvercast
3:53 PM3.0 °F-6.0 °F66 %30.08 in10.0 miWNW (290°)19.6 mph26.5 mphMostly Cloudy
4:13 PM3.2 °F-5.8 °F66 %30.01 in10.0 miWNW (290°)20.7 mph25.3 mphScattered Clouds
4:21 PM1.4 °F-5.8 °F72 %30.01 in10.0 miWNW (290°)19.6 mph28.8 mphMostly Cloudy
4:53 PM1.9 °F-5.1 °F72 %30.11 in9.0 miWNW (300°)19.6 mphMostly Cloudy
5:20 PM1.4 °F-5.8 °F72 %30.05 in2.5 miWNW (300°)17.3 mphHaze
5:27 PM1.4 °F-5.8 °F72 %30.05 in6.0 miWNW (300°)17.3 mphHaze
5:51 PM1.4 °F-5.8 °F72 %30.07 in10.0 miNW (310°)21.9 mph31.1 mphMostly Cloudy
5:53 PM1.0 °F-7.1 °F69 %30.15 in10.0 miNW (310°)19.6 mph31.1 mphMostly Cloudy
6:07 PM-0.4 °F-7.6 °F72 %30.07 in10.0 miNW (310°)21.9 mph27.6 mphScattered Clouds
6:53 PM0.0 °F-7.1 °F72 %30.18 in7.0 miWNW (300°)23.0 mph28.8 mphOvercast
7:02 PM-0.4 °F-7.6 °F72 %30.10 in8.0 miNW (310°)18.4 mph26.5 mphOvercast
7:16 PM-0.4 °F-7.6 °F72 %30.11 in7.0 miWNW (300°)21.9 mph28.8 mphOvercast
7:49 PM-0.4 °F-9.4 °F66 %30.12 in10.0 miWNW (300°)17.3 mphScattered Clouds
7:53 PM-0.9 °F-9.0 °F69 %30.21 in10.0 miWNW (300°)18.4 mphPartly Cloudy
8:53 PM-2.0 °F-9.9 °F69 %30.23 in10.0 miWNW (300°)16.1 mphScattered Clouds
9:13 PM-2.2 °F-9.4 °F71 %30.15 in10.0 miNW (310°)19.6 mphMostly Cloudy
9:22 PM-2.2 °F-9.4 °F71 %30.15 in10.0 miNW (310°)15.0 mph24.2 mphPartly Cloudy
9:53 PM-2.9 °F-9.9 °F72 %30.26 in10.0 miWNW (300°)17.3 mphPartly Cloudy
10:53 PM-4.0 °F-11.0 °F72 %30.27 in10.0 miWNW (300°)16.1 mphClear
11:53 PM-4.0 °F-11.0 °F72 %30.30 in10.0 miWNW (290°)13.8 mphClear
Hourly data recorded from KDBQ, located miles away from Galena, Illinois







STORIES FROM OUR PARTNERS